This demonstration page uses our WeatherBlox Daily Observations layout. Learn more.

Left ArrowRight Arrow

39.92423, -83.80882

Hourly Observations for August 2, 2016

Temp ( °F °C ) Dew Point ( °F °C ) Humidity (%) Winds ( mph kmh ) Pressure ( in mb ) Visibility ( mi km ) Precip ( " mm )
12:56 am 00:56 Clear with Mist and Fog 67 19.4 66 18.9 97 97 N N/A 30.07 1018 2.5 4.02335 N/A
1:09 am 01:09 Clear with Mist and Fog 68 20 66 19 94 94 N 3 6 30.06 1018 6 9.65604 N/A
1:56 am 01:56 Partly Cloudy with Mist and Fog 67 19.4 66 18.9 97 97 N N/A 30.07 1018 3 4.82802 N/A
2:10 am 02:10 Mostly Clear with Mist and Fog 66 19 66 19 100 100 N N/A 30.06 1018 2 3.21868 N/A
2:33 am 02:33 Mostly Clear with Mist and Fog 66 19 64 18 94 94 N N/A 30.06 1018 3 4.82802 N/A
2:40 am 02:40 Clear with Mist and Fog 66 19 66 19 100 100 N N/A 30.06 1018 2 3.21868 N/A
2:47 am 02:47 Clear with Mist and Fog 66 19 66 19 100 100 N N/A 30.06 1018 1.5 2.41401 N/A
2:56 am 02:56 Clear with Mist and Fog 67 19.4 66 18.9 97 97 N N/A 30.06 1018 1.75 2.816345 N/A
3:07 am 03:07 Partly Cloudy with Mist and Fog 66 19 66 19 100 100 N N/A 30.06 1018 2 3.21868 N/A
3:18 am 03:18 Partly Cloudy with Mist and Fog 66 19 66 19 100 100 N N/A 30.06 1018 1.75 2.816345 N/A
3:36 am 03:36 Mostly Cloudy with Mist and Fog 64 18 64 18 100 100 N N/A 30.09 1019 2 3.21868 N/A
3:56 am 03:56 Cloudy with Mist and Fog 66 18.9 66 18.9 100 100 N N/A 30.07 1018 3 4.82802 N/A
4:20 am 04:20 Partly Cloudy with Mist and Fog 66 19 64 18 94 94 N N/A 30.06 1018 1.75 2.816345 N/A
4:22 am 04:22 Partly Cloudy with Mist and Fog 66 19 64 18 94 94 N N/A N/A 0.75 1.207005 N/A
4:29 am 04:29 Mostly Cloudy with Fog 64 18 64 18 100 100 N N/A 30.09 1019 0.5 0.80467 N/A
4:33 am 04:33 Mostly Cloudy with Mist and Fog 64 18 64 18 100 100 SW 3 6 30.09 1019 0.75 1.207005 N/A
4:38 am 04:38 Mostly Clear with Mist and Fog 64 18 64 18 100 100 SSW 3 6 30.09 1019 1.5 2.41401 N/A
4:44 am 04:44 Mostly Cloudy with Mist and Fog 64 18 64 18 100 100 N N/A 30.09 1019 0.75 1.207005 N/A
4:53 am 04:53 Mostly Cloudy with Fog 64 18 64 18 100 100 SSW 3 6 N/A 0.5 0.80467 N/A
4:56 am 04:56 Mostly Cloudy with Fog 65 18.3 64 17.8 97 97 SW 3 6 30.05 1018 0.5 0.80467 N/A
4:58 am 04:58 Clear with Fog 64 18 64 18 100 100 SW 3 6 30.09 1019 0.25 0.402335 N/A
5:03 am 05:03 Mostly Cloudy with Fog 64 18 64 18 100 100 N N/A 30.09 1019 0.25 0.402335 N/A
5:21 am 05:21 Mostly Cloudy with Mist and Fog 64 18 63 17 94 94 N N/A 30.09 1019 0.75 1.207005 N/A
5:24 am 05:24 Cloudy with Mist and Fog 64 18 63 17 94 94 N N/A 30.03 1017 1.25 2.011675 N/A
5:28 am 05:28 Cloudy with Fog 64 18 64 18 100 100 E 3 6 30.03 1017 0.5 0.80467 N/A
5:34 am 05:34 Cloudy with Fog 63 17 63 17 100 100 E 5 7 30.06 1018 0.25 0.402335 N/A
5:48 am 05:48 Cloudy with Mist and Fog 64 18 63 17 94 94 N N/A N/A 0.75 1.207005 N/A
5:53 am 05:53 Cloudy with Fog 64 18 64 18 100 100 N N/A 30.09 1019 0.25 0.402335 N/A
5:56 am 05:56 Cloudy with Fog 64 17.8 64 17.8 100 100 N N/A 30.05 1018 0.25 0.402335 N/A
6:56 am 06:56 Cloudy with Fog 64 17.8 63 17.2 96 96 N N/A 30.06 1018 5 8.0467 N/A
7:32 am 07:32 Mostly Cloudy with Mist and Fog 64 18 64 18 100 100 N N/A 30.09 1019 0.75 1.207005 N/A
7:36 am 07:36 Mostly Cloudy with Mist and Fog 66 19 66 19 100 100 undefined N/A N/A 2 3.21868 N/A
7:44 am 07:44 Partly Cloudy with Mist and Fog 66 19 66 19 100 100 N N/A 30.06 1018 2.5 4.02335 N/A
7:56 am 07:56 Sunny with Mist and Fog 68 20 67 19.4 96 96 N N/A 30.06 1018 3 4.82802 N/A
8:07 am 08:07 Sunny with Mist and Fog 70 21 68 20 94 94 N N/A 30.06 1018 2.5 4.02335 N/A
8:35 am 08:35 Sunny with Mist and Fog 72 22 70 21 94 94 NNE 3 6 30.06 1018 4 6.43736 N/A
8:56 am 08:56 Sunny 73 22.8 69 20.6 87 87 ENE 5 7 30.08 1019 10 16.0934 N/A
9:56 am 09:56 Sunny 77 25 69 20.6 77 77 E 5 7 30.08 1019 10 16.0934 N/A
10:56 am 10:56 Sunny 80 26.7 69 20.6 69 69 N N/A 30.08 1019 9 14.48406 N/A
11:56 am 11:56 Hazy 83 28.3 68 20 61 61 VRB 7 11 30.09 1019 3 4.82802 N/A
12:07 pm 12:07 Hazy 82 28 68 20 62 62 undefined N/A N/A 1.75 2.816345 N/A
12:19 pm 12:19 Hazy 82 28 70 21 66 66 VRB 5 7 30.06 1018 3 4.82802 N/A
12:56 pm 12:56 Sunny 84 28.9 66 18.9 55 55 E 7 11 30.09 1019 10 16.0934 N/A
1:56 pm 13:56 Mostly Sunny 86 30 70 21.1 59 59 SE 8 13 30.09 1019 8 12.87472 N/A
2:56 pm 14:56 Partly Cloudy 85 29.4 70 21.1 61 61 VRB 6 9 30.07 1018 7 11.26538 N/A
3:56 pm 15:56 Sunny 86 30 68 20 55 55 undefined N/A 30.06 1018 10 16.0934 N/A
4:56 pm 16:56 Cloudy 86 30 66 18.9 51 51 VRB 5 7 30.04 1017 10 16.0934 N/A
5:56 pm 17:56 Cloudy 85 29.4 68 20 57 57 E 6 9 30.03 1017 10 16.0934 N/A
6:56 pm 18:56 Sunny 85 29.4 66 18.9 53 53 ENE 3 6 30.03 1017 10 16.0934 N/A
7:56 pm 19:56 Sunny 80 26.7 66 18.9 62 62 ESE 6 9 30.02 1017 10 16.0934 N/A
8:56 pm 20:56 Clear 76 24.4 66 18.9 72 72 E 3 6 30.03 1017 10 16.0934 N/A
9:56 pm 21:56 Clear 74 23.3 66 18.9 76 76 E 3 6 30.04 1017 10 16.0934 N/A
10:56 pm 22:56 Clear 71 21.7 66 18.9 84 84 N N/A 30.05 1018 10 16.0934 N/A
11:56 pm 23:56 Clear 70 21.1 65 18.3 84 84 N N/A 30.05 1018 10 16.0934 N/A

Powered by AerisWeather